SKK44 DXXX-FZAA

Flight info

Callsign SKK44
Flight time 2h 34m
Altitude 37000
Route SABGO2S SABGO DCT LIREX DCT BIPIV UG856 BZ
Aircraft B38M/M-SDE1FGHILORVWXY/HB1

Departure

Time 2026-04-14 12:06
Airport Lomé–Tokoin International Airport (DXXX)

Arrival

Time 2026-04-14 14:40
Airport Ndjili International Airport (FZAA)
Time Latitude Longitude Altitude Speed Heading
2026-04-14 11:44 6.17019 1.25411 73 ft 0 kts 314°
2026-04-14 11:58 6.17009 1.25421 64 ft 3 kts 314°
2026-04-14 11:58 6.16996 1.25434 69 ft 3 kts 314°
2026-04-14 11:59 6.16984 1.25448 64 ft 3 kts 314°
2026-04-14 11:59 6.16971 1.25461 71 ft 3 kts 314°
2026-04-14 11:59 6.16964 1.25468 67 ft 0 kts 314°
2026-04-14 12:03 6.16981 1.25473 69 ft 7 kts 45°
2026-04-14 12:03 6.17031 1.25564 73 ft 19 kts 52°
2026-04-14 12:03 6.17134 1.25651 66 ft 20 kts 39°
2026-04-14 12:04 6.17251 1.25744 73 ft 22 kts 38°
2026-04-14 12:04 6.17379 1.25845 73 ft 24 kts 39°
2026-04-14 12:04 6.17515 1.25954 69 ft 26 kts 38°
2026-04-14 12:04 6.17638 1.26052 73 ft 21 kts 38°
2026-04-14 12:05 6.17704 1.26151 73 ft 18 kts 112°
2026-04-14 12:05 6.17620 1.26235 73 ft 15 kts 176°
2026-04-14 12:05 6.17576 1.26214 67 ft 0 kts 218°
2026-04-14 12:05 6.17511 1.26162 69 ft 44 kts 219°
2026-04-14 12:06 6.17062 1.25806 71 ft 118 kts 218°
2026-04-14 12:06 6.16247 1.25171 156 ft 171 kts 217°
2026-04-14 12:06 6.15272 1.24450 1045 ft 169 kts 211°
2026-04-14 12:06 6.14193 1.24043 1941 ft 173 kts 182°
2026-04-14 12:07 6.12995 1.24427 2693 ft 193 kts 148°
2026-04-14 12:07 6.12153 1.25557 3316 ft 219 kts 112°
2026-04-14 12:07 6.11670 1.27076 3920 ft 238 kts 115°
2026-04-14 12:07 6.11023 1.28678 4530 ft 257 kts 114°
2026-04-14 12:08 6.10340 1.30401 5183 ft 272 kts 112°
2026-04-14 12:08 6.09655 1.32162 6221 ft 269 kts 111°
2026-04-14 12:08 6.08983 1.33913 7194 ft 269 kts 110°
2026-04-14 12:08 6.08397 1.35713 8008 ft 274 kts 97°
2026-04-14 12:09 6.08487 1.37585 8951 ft 272 kts 81°
2026-04-14 12:09 6.08699 1.39481 9844 ft 275 kts 92°
2026-04-14 12:09 6.08236 1.41355 10578 ft 285 kts 114°
2026-04-14 12:09 6.07144 1.43091 11058 ft 303 kts 121°
2026-04-14 12:10 6.05928 1.44894 11453 ft 320 kts 122°
2026-04-14 12:10 6.04641 1.46778 11967 ft 333 kts 122°
2026-04-14 12:10 6.03322 1.48695 12756 ft 334 kts 122°
2026-04-14 12:10 6.01987 1.50628 13493 ft 340 kts 123°
2026-04-14 12:11 6.00630 1.52593 14165 ft 344 kts 123°
2026-04-14 12:11 5.99258 1.54575 14844 ft 347 kts 123°
2026-04-14 12:11 5.97872 1.56578 15523 ft 350 kts 123°
2026-04-14 12:11 5.96476 1.58595 16176 ft 354 kts 123°
2026-04-14 12:12 5.95063 1.60636 16823 ft 357 kts 123°
2026-04-14 12:12 5.93639 1.62692 17471 ft 360 kts 123°
2026-04-14 12:12 5.92202 1.64768 18078 ft 364 kts 123°
2026-04-14 12:12 5.90751 1.66864 18608 ft 367 kts 123°
2026-04-14 12:13 5.89288 1.68975 19137 ft 369 kts 123°
2026-04-14 12:13 5.87817 1.71099 19667 ft 372 kts 123°
2026-04-14 12:13 5.86334 1.73239 20170 ft 374 kts 123°
2026-04-14 12:13 5.84838 1.75400 20673 ft 377 kts 123°
2026-04-14 12:14 5.83334 1.77572 21165 ft 380 kts 123°
2026-04-14 12:14 5.82036 1.79888 21655 ft 381 kts 116°
2026-04-14 12:14 5.80842 1.82273 22116 ft 384 kts 116°
2026-04-14 12:14 5.79635 1.84682 22579 ft 387 kts 116°
2026-04-14 12:15 5.78422 1.87108 23043 ft 390 kts 116°
2026-04-14 12:15 5.77201 1.89552 23490 ft 393 kts 116°
2026-04-14 12:15 5.75970 1.92013 23859 ft 395 kts 116°
2026-04-14 12:15 5.74732 1.94490 24216 ft 398 kts 116°
2026-04-14 12:16 5.73487 1.96980 24581 ft 401 kts 116°
2026-04-14 12:16 5.72233 1.99489 24941 ft 403 kts 116°
2026-04-14 12:16 5.70971 2.02012 25304 ft 406 kts 116°
2026-04-14 12:16 5.69699 2.04555 25649 ft 409 kts 116°
2026-04-14 12:17 5.68418 2.07116 26000 ft 411 kts 117°
2026-04-14 12:17 5.67132 2.09687 26361 ft 414 kts 117°
2026-04-14 12:17 5.65836 2.12277 26705 ft 416 kts 117°
2026-04-14 12:17 5.64532 2.14883 27051 ft 419 kts 117°
2026-04-14 12:18 5.63219 2.17507 27382 ft 422 kts 117°
2026-04-14 12:18 5.61900 2.20141 27715 ft 424 kts 117°
2026-04-14 12:18 5.60572 2.22795 28059 ft 426 kts 117°
2026-04-14 12:18 5.59237 2.25461 28383 ft 429 kts 117°
2026-04-14 12:19 5.57892 2.28147 28702 ft 431 kts 117°
2026-04-14 12:19 5.56541 2.30844 29030 ft 434 kts 117°
2026-04-14 12:19 5.55184 2.33555 29339 ft 436 kts 117°
2026-04-14 12:19 5.53817 2.36283 29638 ft 439 kts 117°
2026-04-14 12:20 5.52444 2.39024 29940 ft 441 kts 117°
2026-04-14 12:20 5.51064 2.41778 30202 ft 443 kts 117°
2026-04-14 12:20 5.49676 2.44548 30464 ft 445 kts 117°
2026-04-14 12:20 5.48285 2.47324 30738 ft 446 kts 117°
2026-04-14 12:21 5.46886 2.50114 30962 ft 449 kts 117°
2026-04-14 12:21 5.45480 2.52918 31216 ft 451 kts 117°
2026-04-14 12:21 5.44068 2.55735 31472 ft 452 kts 117°
2026-04-14 12:21 5.42651 2.58560 31718 ft 454 kts 117°
2026-04-14 12:22 5.41227 2.61398 31939 ft 456 kts 117°
2026-04-14 12:22 5.39799 2.64245 32185 ft 458 kts 117°
2026-04-14 12:22 5.38363 2.67109 32431 ft 460 kts 117°
2026-04-14 12:22 5.36923 2.69978 32681 ft 461 kts 117°
2026-04-14 12:23 5.35478 2.72857 33002 ft 461 kts 117°
2026-04-14 12:23 5.34037 2.75727 33332 ft 460 kts 117°
2026-04-14 12:23 5.32599 2.78594 33683 ft 460 kts 117°
2026-04-14 12:23 5.31162 2.81455 34011 ft 459 kts 117°
2026-04-14 12:24 5.29725 2.84317 34292 ft 458 kts 117°
2026-04-14 12:24 5.28292 2.87170 34570 ft 458 kts 117°
2026-04-14 12:24 5.26858 2.90025 34832 ft 458 kts 117°
2026-04-14 12:24 5.25425 2.92878 35104 ft 458 kts 117°
2026-04-14 12:25 5.23991 2.95732 35378 ft 458 kts 117°
2026-04-14 12:25 5.22561 2.98579 35646 ft 457 kts 117°
2026-04-14 12:25 5.21128 3.01430 35902 ft 457 kts 117°
2026-04-14 12:25 5.19695 3.04280 36158 ft 457 kts 117°
2026-04-14 12:26 5.18263 3.07130 36421 ft 457 kts 117°
2026-04-14 12:26 5.16833 3.09974 36669 ft 457 kts 117°
2026-04-14 12:26 5.15403 3.12818 36855 ft 457 kts 117°
2026-04-14 12:26 5.13972 3.15664 36872 ft 456 kts 117°
2026-04-14 12:27 5.11121 3.21332 36878 ft 455 kts 117°
2026-04-14 12:27 5.08274 3.26992 36881 ft 455 kts 117°
2026-04-14 12:28 5.05420 3.32661 36874 ft 455 kts 117°
2026-04-14 12:28 5.02569 3.38325 36877 ft 455 kts 117°
2026-04-14 12:29 4.99718 3.43987 36876 ft 455 kts 117°
2026-04-14 12:29 4.96865 3.49654 36876 ft 455 kts 117°
2026-04-14 12:30 4.94012 3.55316 36877 ft 455 kts 117°
2026-04-14 12:30 4.91159 3.60978 36881 ft 455 kts 117°
2026-04-14 12:31 4.88308 3.66634 36875 ft 454 kts 117°
2026-04-14 12:31 4.85457 3.72291 36879 ft 454 kts 117°
2026-04-14 12:32 4.82609 3.77938 36877 ft 454 kts 117°
2026-04-14 12:32 4.79761 3.83585 36873 ft 453 kts 117°
2026-04-14 12:33 4.76915 3.89225 36874 ft 453 kts 117°
2026-04-14 12:33 4.74069 3.94864 36880 ft 453 kts 117°
2026-04-14 12:34 4.71226 4.00498 36873 ft 453 kts 117°
2026-04-14 12:34 4.68385 4.06124 36883 ft 452 kts 117°
2026-04-14 12:35 4.65544 4.11750 36878 ft 452 kts 117°
2026-04-14 12:35 4.62706 4.17368 36881 ft 452 kts 117°
2026-04-14 12:36 4.59865 4.22991 36878 ft 452 kts 117°
2026-04-14 12:36 4.57025 4.28612 36880 ft 452 kts 117°
2026-04-14 12:37 4.54186 4.34229 36877 ft 452 kts 117°
2026-04-14 12:37 4.51345 4.39846 36879 ft 452 kts 117°
2026-04-14 12:38 4.47563 4.47327 36879 ft 452 kts 117°
2026-04-14 12:39 4.44260 4.53852 36881 ft 452 kts 118°
2026-04-14 12:39 4.41162 4.59327 36883 ft 452 kts 120°
2026-04-14 12:40 4.38574 4.63918 36876 ft 451 kts 120°
2026-04-14 12:40 4.35491 4.69399 36876 ft 451 kts 120°
2026-04-14 12:41 4.32409 4.74878 36877 ft 451 kts 120°
2026-04-14 12:41 4.29328 4.80353 36876 ft 451 kts 120°
2026-04-14 12:42 4.26250 4.85823 36878 ft 450 kts 120°
2026-04-14 12:42 4.23174 4.91287 36877 ft 450 kts 120°
2026-04-14 12:43 4.20102 4.96745 36877 ft 449 kts 120°
2026-04-14 12:43 4.17033 5.02194 36878 ft 449 kts 120°
2026-04-14 12:44 4.13965 5.07641 36877 ft 448 kts 120°
2026-04-14 12:44 4.10901 5.13080 36875 ft 448 kts 120°
2026-04-14 12:45 4.06312 5.21225 36877 ft 448 kts 120°
2026-04-14 12:45 4.03251 5.26655 36877 ft 447 kts 120°
2026-04-14 12:46 4.00192 5.32083 36874 ft 447 kts 120°
2026-04-14 12:46 3.97132 5.37509 36879 ft 447 kts 120°
2026-04-14 12:47 3.94076 5.42928 36883 ft 447 kts 120°
2026-04-14 12:47 3.91019 5.48347 36879 ft 447 kts 120°
2026-04-14 12:48 3.87986 5.53724 36872 ft 446 kts 120°
2026-04-14 12:48 3.84912 5.59172 36871 ft 446 kts 120°
2026-04-14 12:49 3.81854 5.64590 36874 ft 446 kts 120°
2026-04-14 12:49 3.78819 5.69967 36873 ft 446 kts 120°
2026-04-14 12:50 3.74234 5.78088 36875 ft 447 kts 120°
2026-04-14 12:51 3.71173 5.83507 36872 ft 447 kts 120°
2026-04-14 12:51 3.68113 5.88926 36877 ft 447 kts 120°
2026-04-14 12:52 3.65055 5.94340 36870 ft 447 kts 120°
2026-04-14 12:52 3.61995 5.99756 36875 ft 447 kts 120°
2026-04-14 12:53 3.58933 6.05174 36872 ft 447 kts 120°
2026-04-14 12:53 3.55868 6.10597 36872 ft 447 kts 120°
2026-04-14 12:54 3.52805 6.16015 36871 ft 447 kts 120°
2026-04-14 12:54 3.49737 6.21441 36877 ft 447 kts 120°
2026-04-14 12:55 3.46670 6.26864 36877 ft 448 kts 119°
2026-04-14 12:55 3.43603 6.32287 36874 ft 448 kts 119°
2026-04-14 12:56 3.40534 6.37713 36876 ft 447 kts 119°
2026-04-14 12:56 3.37467 6.43133 36880 ft 447 kts 119°
2026-04-14 12:57 3.34403 6.48549 36876 ft 447 kts 119°
2026-04-14 12:57 3.31336 6.53968 36871 ft 447 kts 119°
2026-04-14 12:58 3.28273 6.59378 36876 ft 447 kts 119°
2026-04-14 12:58 3.25209 6.64791 36871 ft 447 kts 119°
2026-04-14 12:59 3.22146 6.70201 36872 ft 447 kts 119°
2026-04-14 12:59 3.19084 6.75609 36874 ft 447 kts 119°
2026-04-14 12:59 3.17412 6.78226 36852 ft 446 kts 130°
2026-04-14 13:00 3.15240 6.80440 36885 ft 447 kts 134°
2026-04-14 13:00 3.10842 6.84861 36875 ft 449 kts 134°
2026-04-14 13:01 3.06395 6.89250 36870 ft 449 kts 134°
2026-04-14 13:01 3.01934 6.93634 36869 ft 449 kts 134°
2026-04-14 13:02 2.97500 6.97989 36869 ft 450 kts 134°
2026-04-14 13:02 2.93035 7.02374 36868 ft 450 kts 134°
2026-04-14 13:03 2.88539 7.06790 36866 ft 450 kts 134°
2026-04-14 13:03 2.84093 7.11155 36873 ft 450 kts 134°
2026-04-14 13:04 2.79593 7.15573 36872 ft 450 kts 134°
2026-04-14 13:04 2.75152 7.19933 36872 ft 450 kts 134°
2026-04-14 13:05 2.70676 7.24326 36869 ft 450 kts 134°
2026-04-14 13:05 2.66208 7.28712 36871 ft 450 kts 134°
2026-04-14 13:06 2.61738 7.33099 36871 ft 450 kts 134°
2026-04-14 13:06 2.57266 7.37486 36870 ft 450 kts 134°
2026-04-14 13:07 2.52761 7.41897 36866 ft 450 kts 135°
2026-04-14 13:07 2.48256 7.46246 36868 ft 450 kts 135°
2026-04-14 13:08 2.43756 7.50597 36869 ft 450 kts 135°
2026-04-14 13:08 2.39251 7.54953 36869 ft 450 kts 135°
2026-04-14 13:09 2.34748 7.59305 36866 ft 450 kts 135°
2026-04-14 13:09 2.30249 7.63654 36872 ft 450 kts 135°
2026-04-14 13:10 2.25777 7.67976 36868 ft 450 kts 135°
2026-04-14 13:10 2.21270 7.72331 36871 ft 451 kts 135°
2026-04-14 13:11 2.16759 7.76690 36866 ft 451 kts 135°
2026-04-14 13:11 2.12249 7.81048 36863 ft 451 kts 135°
2026-04-14 13:12 2.07738 7.85406 36865 ft 451 kts 135°
2026-04-14 13:12 2.03217 7.89773 36870 ft 452 kts 135°
2026-04-14 13:13 1.98696 7.94141 36861 ft 452 kts 135°
2026-04-14 13:13 1.94168 7.98514 36866 ft 453 kts 135°
2026-04-14 13:14 1.89646 8.02897 36866 ft 453 kts 135°
2026-04-14 13:14 1.85120 8.07287 36861 ft 453 kts 135°
2026-04-14 13:15 1.80593 8.11679 36866 ft 453 kts 135°
2026-04-14 13:15 1.76035 8.16099 36865 ft 453 kts 135°
2026-04-14 13:16 1.71506 8.20491 36862 ft 454 kts 134°
2026-04-14 13:16 1.66978 8.24882 36867 ft 453 kts 134°
2026-04-14 13:17 1.62455 8.29268 36865 ft 453 kts 134°
2026-04-14 13:17 1.57955 8.33631 36863 ft 453 kts 134°
2026-04-14 13:18 1.53432 8.38017 36862 ft 453 kts 134°
2026-04-14 13:18 1.49643 8.41690 36860 ft 453 kts 134°
2026-04-14 13:19 1.45121 8.46073 36858 ft 453 kts 134°
2026-04-14 13:19 1.40594 8.50462 36861 ft 453 kts 134°
2026-04-14 13:20 1.36065 8.54852 36860 ft 453 kts 134°
2026-04-14 13:20 1.31532 8.59246 36861 ft 453 kts 134°
2026-04-14 13:21 1.27003 8.63635 36859 ft 453 kts 134°
2026-04-14 13:21 1.22477 8.68021 36864 ft 453 kts 134°
2026-04-14 13:22 1.17950 8.72409 36864 ft 453 kts 134°
2026-04-14 13:22 1.13424 8.76796 36866 ft 454 kts 134°
2026-04-14 13:23 1.08893 8.81187 36866 ft 454 kts 134°
2026-04-14 13:23 1.04388 8.85552 36865 ft 454 kts 134°
2026-04-14 13:24 0.99852 8.89948 36870 ft 454 kts 134°
2026-04-14 13:24 0.93046 8.96543 36865 ft 455 kts 134°
2026-04-14 13:25 0.88505 9.00942 36864 ft 455 kts 134°
2026-04-14 13:26 0.79417 9.09748 36865 ft 455 kts 134°
2026-04-14 13:26 0.74871 9.14152 36866 ft 455 kts 134°
2026-04-14 13:27 0.70324 9.18557 36868 ft 455 kts 135°
2026-04-14 13:27 0.65775 9.22964 36864 ft 455 kts 134°
2026-04-14 13:28 0.61231 9.27367 36864 ft 455 kts 135°
2026-04-14 13:28 0.56684 9.31771 36864 ft 455 kts 135°
2026-04-14 13:29 0.52139 9.36174 36862 ft 455 kts 135°
2026-04-14 13:29 0.47659 9.40646 36855 ft 453 kts 128°
2026-04-14 13:30 0.43676 9.45535 36856 ft 454 kts 128°
2026-04-14 13:30 0.39707 9.50438 36858 ft 454 kts 128°
2026-04-14 13:31 0.35737 9.55349 36855 ft 454 kts 128°
2026-04-14 13:31 0.31767 9.60259 36850 ft 454 kts 128°
2026-04-14 13:32 0.27799 9.65168 36848 ft 454 kts 128°
2026-04-14 13:32 0.23828 9.70079 36848 ft 454 kts 128°
2026-04-14 13:33 0.19859 9.74988 36850 ft 454 kts 128°
2026-04-14 13:33 0.15893 9.79894 36853 ft 454 kts 128°
2026-04-14 13:34 0.09942 9.87254 36855 ft 454 kts 128°
2026-04-14 13:35 0.05973 9.92164 36849 ft 454 kts 128°
2026-04-14 13:35 0.02005 9.97071 36852 ft 454 kts 128°
2026-04-14 13:36 -0.01963 10.01979 36850 ft 454 kts 128°
2026-04-14 13:36 -0.05930 10.06887 36848 ft 454 kts 128°
2026-04-14 13:37 -0.09896 10.11792 36850 ft 454 kts 128°
2026-04-14 13:37 -0.13865 10.16701 36856 ft 454 kts 128°
2026-04-14 13:38 -0.17841 10.21618 36849 ft 454 kts 128°
2026-04-14 13:38 -0.21809 10.26527 36851 ft 454 kts 128°
2026-04-14 13:39 -0.25778 10.31435 36853 ft 454 kts 128°
2026-04-14 13:39 -0.29747 10.36346 36851 ft 454 kts 128°
2026-04-14 13:40 -0.33714 10.41252 36849 ft 454 kts 128°
2026-04-14 13:40 -0.37680 10.46159 36854 ft 454 kts 128°
2026-04-14 13:41 -0.41645 10.51062 36858 ft 454 kts 128°
2026-04-14 13:41 -0.45611 10.55968 36851 ft 454 kts 128°
2026-04-14 13:42 -0.49580 10.60878 36858 ft 454 kts 128°
2026-04-14 13:42 -0.53550 10.65790 36860 ft 454 kts 128°
2026-04-14 13:43 -0.57517 10.70698 36862 ft 454 kts 128°
2026-04-14 13:43 -0.61491 10.75614 36863 ft 454 kts 128°
2026-04-14 13:44 -0.65459 10.80522 36870 ft 454 kts 128°
2026-04-14 13:44 -0.69430 10.85435 36865 ft 454 kts 128°
2026-04-14 13:45 -0.73402 10.90350 36871 ft 454 kts 128°
2026-04-14 13:45 -0.77373 10.95263 36875 ft 454 kts 128°
2026-04-14 13:46 -0.81344 11.00175 36878 ft 455 kts 128°
2026-04-14 13:46 -0.85317 11.05090 36876 ft 454 kts 128°
2026-04-14 13:47 -0.89292 11.10009 36881 ft 455 kts 128°
2026-04-14 13:47 -0.93266 11.14926 36879 ft 455 kts 128°
2026-04-14 13:48 -0.97238 11.19841 36879 ft 455 kts 128°
2026-04-14 13:48 -1.01213 11.24760 36886 ft 455 kts 128°
2026-04-14 13:49 -1.05186 11.29676 36886 ft 455 kts 128°
2026-04-14 13:49 -1.09163 11.34598 36882 ft 455 kts 128°
2026-04-14 13:50 -1.13137 11.39516 36885 ft 455 kts 128°
2026-04-14 13:50 -1.17113 11.44436 36889 ft 455 kts 128°
2026-04-14 13:51 -1.21087 11.49356 36881 ft 455 kts 128°
2026-04-14 13:51 -1.25061 11.54274 36880 ft 455 kts 128°
2026-04-14 13:52 -1.29034 11.59192 36883 ft 455 kts 128°
2026-04-14 13:52 -1.33010 11.64115 36885 ft 455 kts 128°
2026-04-14 13:53 -1.36983 11.69033 36880 ft 455 kts 128°
2026-04-14 13:53 -1.40956 11.73951 36884 ft 454 kts 128°
2026-04-14 13:54 -1.44929 11.78870 36881 ft 454 kts 128°
2026-04-14 13:54 -1.48896 11.83783 36885 ft 454 kts 128°
2026-04-14 13:55 -1.52862 11.88695 36882 ft 454 kts 128°
2026-04-14 13:55 -1.56828 11.93606 36879 ft 454 kts 128°
2026-04-14 13:56 -1.60122 11.97685 36881 ft 454 kts 128°
2026-04-14 13:56 -1.64087 12.02596 36886 ft 454 kts 128°
2026-04-14 13:57 -1.68050 12.07504 36883 ft 453 kts 128°
2026-04-14 13:57 -1.72011 12.12411 36886 ft 453 kts 128°
2026-04-14 13:58 -1.75973 12.17320 36879 ft 454 kts 128°
2026-04-14 13:58 -1.79934 12.22228 36887 ft 454 kts 128°
2026-04-14 13:59 -1.83901 12.27142 36882 ft 454 kts 128°
2026-04-14 13:59 -1.87867 12.32058 36884 ft 454 kts 128°
2026-04-14 14:00 -1.91832 12.36971 36886 ft 454 kts 128°
2026-04-14 14:00 -1.95795 12.41884 36884 ft 454 kts 128°
2026-04-14 14:01 -1.99764 12.46803 36882 ft 454 kts 128°
2026-04-14 14:01 -2.03729 12.51718 36888 ft 454 kts 128°
2026-04-14 14:02 -2.07692 12.56632 36882 ft 454 kts 128°
2026-04-14 14:02 -2.11660 12.61551 36881 ft 454 kts 128°
2026-04-14 14:03 -2.15627 12.66471 36882 ft 455 kts 128°
2026-04-14 14:03 -2.19598 12.71394 36881 ft 455 kts 128°
2026-04-14 14:04 -2.23572 12.76323 36881 ft 455 kts 128°
2026-04-14 14:04 -2.27548 12.81254 36879 ft 455 kts 128°
2026-04-14 14:05 -2.31523 12.86185 36874 ft 456 kts 128°
2026-04-14 14:05 -2.35505 12.91125 36876 ft 456 kts 128°
2026-04-14 14:06 -2.39489 12.96067 36878 ft 457 kts 127°
2026-04-14 14:06 -2.43472 13.01010 36878 ft 457 kts 127°
2026-04-14 14:07 -2.47471 13.05947 36877 ft 456 kts 128°
2026-04-14 14:07 -2.51480 13.10867 36872 ft 456 kts 128°
2026-04-14 14:08 -2.55490 13.15790 36865 ft 456 kts 128°
2026-04-14 14:08 -2.59499 13.20714 36869 ft 456 kts 128°
2026-04-14 14:09 -2.63509 13.25639 36866 ft 456 kts 128°
2026-04-14 14:09 -2.67520 13.30566 36867 ft 457 kts 128°
2026-04-14 14:10 -2.71531 13.35494 36865 ft 457 kts 128°
2026-04-14 14:10 -2.75521 13.40395 36867 ft 457 kts 128°
2026-04-14 14:11 -2.79561 13.45359 36866 ft 457 kts 128°
2026-04-14 14:11 -2.83573 13.50290 36865 ft 457 kts 128°
2026-04-14 14:12 -2.87587 13.55225 36864 ft 457 kts 128°
2026-04-14 14:12 -2.91574 13.60124 36867 ft 457 kts 128°
2026-04-14 14:13 -2.95586 13.65057 36865 ft 457 kts 128°
2026-04-14 14:13 -2.99623 13.70021 36861 ft 457 kts 128°
2026-04-14 14:14 -3.03609 13.74923 36863 ft 457 kts 128°
2026-04-14 14:14 -3.07619 13.79854 36864 ft 456 kts 128°
2026-04-14 14:15 -3.11626 13.84782 36865 ft 456 kts 128°
2026-04-14 14:15 -3.15631 13.89709 36866 ft 456 kts 128°
2026-04-14 14:16 -3.19628 13.94627 36866 ft 455 kts 128°
2026-04-14 14:16 -3.23626 13.99547 36867 ft 455 kts 128°
2026-04-14 14:17 -3.29617 14.06921 36862 ft 454 kts 128°
2026-04-14 14:17 -3.33605 14.11828 36652 ft 454 kts 128°
2026-04-14 14:18 -3.35601 14.14287 35866 ft 456 kts 128°
2026-04-14 14:18 -3.37615 14.16766 35030 ft 461 kts 128°
2026-04-14 14:18 -3.39639 14.19259 34324 ft 463 kts 128°
2026-04-14 14:18 -3.41668 14.21757 33728 ft 461 kts 128°
2026-04-14 14:19 -3.43685 14.24240 33111 ft 459 kts 128°
2026-04-14 14:19 -3.45693 14.26712 32516 ft 456 kts 128°
2026-04-14 14:19 -3.47689 14.29170 31957 ft 453 kts 128°
2026-04-14 14:19 -3.49670 14.31611 31397 ft 451 kts 128°
2026-04-14 14:20 -3.51648 14.34047 30830 ft 449 kts 128°
2026-04-14 14:20 -3.53613 14.36468 30272 ft 447 kts 129°
2026-04-14 14:20 -3.55569 14.38877 29669 ft 445 kts 129°
2026-04-14 14:20 -3.57518 14.41279 29036 ft 443 kts 129°
2026-04-14 14:21 -3.59453 14.43665 28477 ft 439 kts 128°
2026-04-14 14:21 -3.61371 14.46029 27944 ft 436 kts 128°
2026-04-14 14:21 -3.63275 14.48374 27395 ft 432 kts 128°
2026-04-14 14:21 -3.65164 14.50702 26865 ft 429 kts 128°
2026-04-14 14:22 -3.67037 14.53010 26330 ft 426 kts 128°
2026-04-14 14:22 -3.68899 14.55305 25800 ft 423 kts 128°
2026-04-14 14:22 -3.70752 14.57590 25275 ft 421 kts 128°
2026-04-14 14:22 -3.72589 14.59855 24752 ft 418 kts 128°
2026-04-14 14:23 -3.74420 14.62112 24229 ft 416 kts 128°
2026-04-14 14:23 -3.76240 14.64356 23710 ft 414 kts 128°
2026-04-14 14:23 -3.78051 14.66589 23145 ft 412 kts 128°
2026-04-14 14:23 -3.79854 14.68813 22561 ft 410 kts 128°
2026-04-14 14:24 -3.81641 14.71016 22047 ft 405 kts 128°
2026-04-14 14:24 -3.83409 14.73197 21537 ft 401 kts 128°
2026-04-14 14:24 -3.85157 14.75353 21049 ft 397 kts 128°
2026-04-14 14:24 -3.86894 14.77495 20553 ft 394 kts 128°
2026-04-14 14:25 -3.88610 14.79612 20063 ft 390 kts 128°
2026-04-14 14:25 -3.90314 14.81714 19586 ft 387 kts 128°
2026-04-14 14:25 -3.92003 14.83799 19104 ft 384 kts 128°
2026-04-14 14:25 -3.93684 14.85872 18628 ft 381 kts 128°
2026-04-14 14:26 -3.95350 14.87928 18152 ft 379 kts 127°
2026-04-14 14:26 -3.97006 14.89972 17615 ft 376 kts 127°
2026-04-14 14:26 -3.98648 14.91999 17113 ft 373 kts 127°
2026-04-14 14:26 -4.00275 14.94007 16640 ft 370 kts 127°
2026-04-14 14:27 -4.01886 14.95995 16178 ft 366 kts 127°
2026-04-14 14:27 -4.03481 14.97963 15718 ft 363 kts 127°
2026-04-14 14:27 -4.05064 14.99917 15248 ft 359 kts 127°
2026-04-14 14:27 -4.06634 15.01856 14802 ft 357 kts 127°
2026-04-14 14:28 -4.08190 15.03778 14341 ft 354 kts 127°
2026-04-14 14:28 -4.09737 15.05688 13884 ft 352 kts 127°
2026-04-14 14:28 -4.11271 15.07581 13400 ft 349 kts 127°
2026-04-14 14:28 -4.12797 15.09466 12905 ft 346 kts 127°
2026-04-14 14:29 -4.14307 15.11329 12436 ft 343 kts 127°
2026-04-14 14:29 -4.15805 15.13181 11981 ft 341 kts 127°
2026-04-14 14:29 -4.17292 15.15017 11510 ft 338 kts 127°
2026-04-14 14:29 -4.18769 15.16842 11070 ft 336 kts 127°
2026-04-14 14:30 -4.20231 15.18647 10723 ft 330 kts 127°
2026-04-14 14:30 -4.21651 15.20401 10555 ft 318 kts 127°
2026-04-14 14:30 -4.23021 15.22094 10386 ft 307 kts 127°
2026-04-14 14:30 -4.24314 15.23736 10218 ft 290 kts 121°
2026-04-14 14:31 -4.25012 15.25558 10030 ft 276 kts 95°
2026-04-14 14:31 -4.25080 15.27451 9804 ft 271 kts 89°
2026-04-14 14:31 -4.25107 15.29353 9422 ft 275 kts 89°
2026-04-14 14:31 -4.25124 15.31276 9043 ft 277 kts 89°
2026-04-14 14:32 -4.25134 15.33198 8690 ft 275 kts 89°
2026-04-14 14:32 -4.25140 15.35116 8292 ft 275 kts 89°
2026-04-14 14:32 -4.25142 15.37025 7951 ft 273 kts 89°
2026-04-14 14:32 -4.25143 15.38919 7617 ft 271 kts 89°
2026-04-14 14:33 -4.25143 15.40803 7280 ft 270 kts 89°
2026-04-14 14:33 -4.25142 15.42680 6904 ft 270 kts 89°
2026-04-14 14:33 -4.25142 15.44558 6572 ft 268 kts 90°
2026-04-14 14:33 -4.25141 15.46416 6282 ft 265 kts 90°
2026-04-14 14:34 -4.25140 15.50081 5762 ft 259 kts 90°
2026-04-14 14:34 -4.25140 15.51852 5624 ft 250 kts 90°
2026-04-14 14:34 -4.25139 15.52990 5534 ft 244 kts 90°
2026-04-14 14:35 -4.25139 15.54657 5391 ft 235 kts 90°
2026-04-14 14:35 -4.25138 15.56264 5249 ft 226 kts 90°
2026-04-14 14:35 -4.25159 15.57805 5118 ft 217 kts 97°
2026-04-14 14:35 -4.25702 15.59166 4936 ft 207 kts 131°
2026-04-14 14:36 -4.26862 15.59916 4732 ft 196 kts 165°
2026-04-14 14:36 -4.28186 15.59852 4376 ft 193 kts 203°
2026-04-14 14:36 -4.29206 15.59023 4090 ft 187 kts 232°
2026-04-14 14:36 -4.29897 15.58000 3836 ft 167 kts 238°
2026-04-14 14:37 -4.30481 15.57059 3606 ft 154 kts 237°
2026-04-14 14:37 -4.31057 15.56152 3387 ft 154 kts 237°
2026-04-14 14:37 -4.31635 15.55249 3186 ft 154 kts 237°
2026-04-14 14:37 -4.32211 15.54350 2977 ft 153 kts 237°
2026-04-14 14:38 -4.32786 15.53454 2777 ft 153 kts 237°
2026-04-14 14:38 -4.33359 15.52560 2578 ft 152 kts 237°
2026-04-14 14:38 -4.33931 15.51669 2375 ft 152 kts 237°
2026-04-14 14:38 -4.34502 15.50779 2184 ft 152 kts 238°
2026-04-14 14:39 -4.35073 15.49891 1991 ft 152 kts 239°
2026-04-14 14:39 -4.35642 15.49004 1797 ft 151 kts 238°
2026-04-14 14:39 -4.36215 15.48110 1605 ft 153 kts 240°
2026-04-14 14:39 -4.36788 15.47216 1402 ft 150 kts 239°
2026-04-14 14:40 -4.37359 15.46327 1193 ft 152 kts 240°
2026-04-14 14:40 -4.37941 15.45421 1036 ft 156 kts 241°
2026-04-14 14:40 -4.38440 15.44628 1012 ft 101 kts 235°
2026-04-14 14:40 -4.38703 15.44233 1012 ft 38 kts 236°
2026-04-14 14:41 -4.38769 15.44133 1011 ft 16 kts 237°
2026-04-14 14:41 -4.38893 15.44123 1010 ft 17 kts 145°
2026-04-14 14:41 -4.38949 15.44197 1011 ft 14 kts 72°
2026-04-14 14:41 -4.38918 15.44267 1011 ft 8 kts 97°
2026-04-14 14:42 -4.38961 15.44307 1011 ft 9 kts 147°
2026-04-14 14:42 -4.38973 15.44315 1011 ft 0 kts 147°